TimeMDT,TemperatureF,Dew PointF,Humidity,Sea Level PressureIn,VisibilityMPH,Wind Direction,Wind SpeedMPH,Gust SpeedMPH,PrecipitationIn,Events,Conditions,WindDirDegrees,DateUTC
12:56 AM,30.0,19.0,64,30.45,-9999.0,NW,16.1,-,N/A,,Unknown,310,2012-10-26 06:56:00
1:56 AM,30.0,18.0,61,30.47,-9999.0,WNW,13.8,-,N/A,,Unknown,290,2012-10-26 07:56:00
2:56 AM,28.9,17.1,61,30.48,-9999.0,NW,16.1,23.0,N/A,,Unknown,310,2012-10-26 08:56:00
3:56 AM,28.9,16.0,58,30.48,-9999.0,WNW,18.4,26.5,N/A,,Unknown,300,2012-10-26 09:56:00
4:56 AM,28.0,15.1,58,30.49,-9999.0,WNW,23.0,29.9,N/A,,Unknown,300,2012-10-26 10:56:00
5:56 AM,28.0,16.0,61,30.50,-9999.0,WNW,13.8,-,N/A,,Unknown,290,2012-10-26 11:56:00
6:56 AM,28.0,15.1,58,30.50,-9999.0,WNW,13.8,-,N/A,,Unknown,300,2012-10-26 12:56:00
7:56 AM,28.0,17.1,63,30.51,-9999.0,WNW,8.1,-,N/A,,Unknown,290,2012-10-26 13:56:00
8:56 AM,28.9,18.0,64,30.52,-9999.0,NW,8.1,-,N/A,,Unknown,310,2012-10-26 14:56:00
9:56 AM,30.0,15.1,54,30.52,-9999.0,NW,17.3,-,N/A,,Unknown,310,2012-10-26 15:56:00
10:56 AM,30.9,15.1,52,30.51,-9999.0,NW,16.1,-,N/A,,Unknown,310,2012-10-26 16:56:00
11:56 AM,32.0,15.1,50,30.49,-9999.0,WNW,16.1,28.8,N/A,,Unknown,290,2012-10-26 17:56:00
12:56 PM,32.0,15.1,50,30.46,-9999.0,WNW,11.5,-,N/A,,Unknown,290,2012-10-26 18:56:00
1:56 PM,33.1,17.1,52,30.43,-9999.0,West,12.7,-,N/A,,Unknown,280,2012-10-26 19:56:00
2:56 PM,34.0,17.1,50,30.42,-9999.0,West,10.4,19.6,N/A,,Unknown,270,2012-10-26 20:56:00
3:56 PM,36.0,16.0,44,30.39,-9999.0,West,12.7,-,N/A,,Unknown,280,2012-10-26 21:56:00
4:56 PM,34.0,16.0,48,30.38,-9999.0,West,8.1,-,N/A,,Unknown,270,2012-10-26 22:56:00
5:56 PM,27.0,15.1,61,30.38,-9999.0,SSW,5.8,-,N/A,,Unknown,210,2012-10-26 23:56:00
6:56 PM,26.1,15.1,63,30.37,-9999.0,South,5.8,-,N/A,,Unknown,190,2012-10-27 00:56:00
7:56 PM,25.0,15.1,66,30.36,-9999.0,South,9.2,-,N/A,,Unknown,170,2012-10-27 01:56:00
8:56 PM,28.0,16.0,61,30.35,-9999.0,SSE,9.2,-,N/A,,Unknown,160,2012-10-27 02:56:00
9:56 PM,28.0,16.0,61,30.32,-9999.0,SE,10.4,-,N/A,,Unknown,140,2012-10-27 03:56:00
10:56 PM,24.1,16.0,71,30.31,-9999.0,SSE,9.2,-,N/A,,Unknown,150,2012-10-27 04:56:00
11:56 PM,26.1,19.0,75,30.30,-9999.0,SSE,9.2,-,N/A,,Unknown,150,2012-10-27 05:56:00